パンスターズ彗星

C/2012 U1 ( PanSTARRS )

English version
Home page
Updated on August 9, 2016

---------------------------------------------------------------------

・ プロフィール

発見日 2012年10月18日
発見光度 21.0等
発見者 Pan-STARRS 1 telescope (Haleakala)

・ 写真集

・ 軌道要素

Epoch 2014 July 2.0 TT = JDT 2456840.5
T 2014 July 4.89855 TT                                  MPCW
q   5.2637084            (2000.0)            P               Q
z  +0.0000870      Peri.   70.07076     +0.06733402     -0.92350250
 +/-0.0000010      Node    26.98197     +0.25668300     -0.34972137
e   0.9995421      Incl.   56.33882     +0.96414727     +0.15760110
From 166 observations 2012 Oct. 17-2015 July 10, mean residual 0".4.

・ 光度変化

        m1 = 7.5 + 5 logΔ + 10.0 log r

---------------------------------------------------------------------

軌道要素はM.P.E.C. 2015-Q71に掲載されたものです。
光度グラフはComet for Windowsで作成したものです。

---------------------------------------------------------------------

Copyright(C) Seiichi Yoshida (comet@aerith.net). All rights reserved.